sat.trackr.live / text

‹ back to catalog

STARLINK-3681

NORAD 51968 · 2022-025N

PAYLOAD ACTIVE UNKNOWN

§ Identity

Operator
Country
US
Launch date
2022-03-09
Launch site
AFETR
Launch vehicle
Mass (kg)
RCS (m²)

Purposes: comms

External: N2YO · Heavens-Above · Gunter

§ Orbital elements

Epoch: 2026-09-19T11:36:28.744992Z

Period
94.01 min
Inclination
53.1613°
Eccentricity
0.0001409
Mean motion
15.31690560 rev/d
Perigee alt
469.8 km
Apogee alt
471.7 km
Semi-major
6,848.9 km
B*
3.9368e-5
RAAN
202.4017°
Arg perigee
103.6821°
Mean anomaly
256.4338°
Rev number
25,071

§ Raw data

STARLINK-36811 51968U 22025N   26262.48366603  .00000856  00000+0  39368-4 0  99952 51968  53.1613 202.4017 0001409 103.6821 256.4338 15.31690560250713

JSON: /api/v1/satellites/51968 · /tle

For live sub-satellite position, see the globe view (requires WebGL).

§ Visibility from observer

Set your observer location to see the next 7 days of passes ≥ 10°. The values pass through the URL so the page stays shareable.

No JS? Fill the form by hand. The geolocation button needs JavaScript.